﻿測定場所 (Monitoring sites),日付 (Measurement date),時間 (Measurement time),線量率 最大値 (max) μGy/h,線量率 最小値 (min) μGy/h,線量率 平均値 (average) μGy/h,
大田 (Ota),2015-10-18,23:01～24:00,0.0427,0.0362,0.0384,
大田 (Ota),2015-10-18,22:01～23:00,0.0427,0.0351,0.0382,
大田 (Ota),2015-10-18,21:01～22:00,0.0415,0.0358,0.0383,
大田 (Ota),2015-10-18,20:01～21:00,0.0408,0.0355,0.0381,
大田 (Ota),2015-10-18,19:01～20:00,0.0425,0.0357,0.0381,
大田 (Ota),2015-10-18,18:01～19:00,0.0411,0.0357,0.0385,
大田 (Ota),2015-10-18,17:01～18:00,0.0411,0.0356,0.0381,
大田 (Ota),2015-10-18,16:01～17:00,0.0415,0.0355,0.0383,
大田 (Ota),2015-10-18,15:01～16:00,0.0408,0.0357,0.0381,
大田 (Ota),2015-10-18,14:01～15:00,0.0419,0.0353,0.0384,
大田 (Ota),2015-10-18,13:01～14:00,0.0409,0.0360,0.0384,
大田 (Ota),2015-10-18,12:01～13:00,0.0425,0.0366,0.0387,
大田 (Ota),2015-10-18,11:01～12:00,0.0421,0.0360,0.0388,
大田 (Ota),2015-10-18,10:01～11:00,0.0420,0.0361,0.0386,
大田 (Ota),2015-10-18,09:01～10:00,0.0423,0.0348,0.0385,
大田 (Ota),2015-10-18,08:01～09:00,0.0413,0.0358,0.0385,
大田 (Ota),2015-10-18,07:01～08:00,0.0411,0.0357,0.0381,
大田 (Ota),2015-10-18,06:01～07:00,0.0404,0.0366,0.0382,
大田 (Ota),2015-10-18,05:01～06:00,0.0423,0.0351,0.0385,
大田 (Ota),2015-10-18,04:01～05:00,0.0416,0.0360,0.0385,
大田 (Ota),2015-10-18,03:01～04:00,0.0416,0.0361,0.0382,
大田 (Ota),2015-10-18,02:01～03:00,0.0415,0.0355,0.0380,
大田 (Ota),2015-10-18,01:01～02:00,0.0436,0.0354,0.0383,
大田 (Ota),2015-10-18,00:01～01:00,0.0424,0.0358,0.0385,
大田 (Ota),2015-10-17,23:01～24:00,0.0424,0.0362,0.0382,
大田 (Ota),2015-10-17,22:01～23:00,0.0410,0.0356,0.0379,
大田 (Ota),2015-10-17,21:01～22:00,0.0415,0.0359,0.0383,
大田 (Ota),2015-10-17,20:01～21:00,0.0409,0.0362,0.0381,
大田 (Ota),2015-10-17,19:01～20:00,0.0407,0.0357,0.0376,
大田 (Ota),2015-10-17,18:01～19:00,0.0406,0.0357,0.0381,
大田 (Ota),2015-10-17,17:01～18:00,0.0416,0.0359,0.0381,
大田 (Ota),2015-10-17,16:01～17:00,0.0406,0.0359,0.0382,
大田 (Ota),2015-10-17,15:01～16:00,0.0419,0.0361,0.0386,
大田 (Ota),2015-10-17,14:01～15:00,0.0408,0.0363,0.0384,
大田 (Ota),2015-10-17,13:01～14:00,0.0420,0.0362,0.0391,
大田 (Ota),2015-10-17,12:01～13:00,0.0421,0.0362,0.0387,
大田 (Ota),2015-10-17,11:01～12:00,0.0427,0.0364,0.0396,
大田 (Ota),2015-10-17,10:01～11:00,0.0449,0.0376,0.0413,
大田 (Ota),2015-10-17,09:01～10:00,0.0531,0.0397,0.0465,
大田 (Ota),2015-10-17,08:01～09:00,0.0525,0.0368,0.0454,
大田 (Ota),2015-10-17,07:01～08:00,0.0425,0.0361,0.0391,
大田 (Ota),2015-10-17,06:01～07:00,0.0421,0.0359,0.0388,
大田 (Ota),2015-10-17,05:01～06:00,0.0420,0.0363,0.0389,
大田 (Ota),2015-10-17,04:01～05:00,0.0428,0.0366,0.0396,
大田 (Ota),2015-10-17,03:01～04:00,0.0494,0.0388,0.0428,
大田 (Ota),2015-10-17,02:01～03:00,0.0501,0.0395,0.0450,
大田 (Ota),2015-10-17,01:01～02:00,0.0469,0.0389,0.0422,
大田 (Ota),2015-10-17,00:01～01:00,0.0491,0.0412,0.0452,
大田 (Ota),2015-10-16,23:01～24:00,0.0538,0.0468,0.0500,
大田 (Ota),2015-10-16,22:01～23:00,0.0505,0.0369,0.0427,
大田 (Ota),2015-10-16,21:01～22:00,0.0448,0.0382,0.0410,
大田 (Ota),2015-10-16,20:01～21:00,0.0431,0.0370,0.0399,
大田 (Ota),2015-10-16,19:01～20:00,0.0417,0.0365,0.0393,
大田 (Ota),2015-10-16,18:01～19:00,0.0432,0.0367,0.0396,
大田 (Ota),2015-10-16,17:01～18:00,0.0434,0.0368,0.0398,
大田 (Ota),2015-10-16,16:01～17:00,0.0430,0.0364,0.0395,
大田 (Ota),2015-10-16,15:01～16:00,0.0439,0.0360,0.0396,
大田 (Ota),2015-10-16,14:01～15:00,0.0443,0.0357,0.0399,
大田 (Ota),2015-10-16,13:01～14:00,0.0442,0.0375,0.0404,
大田 (Ota),2015-10-16,12:01～13:00,0.0456,0.0383,0.0415,
大田 (Ota),2015-10-16,11:01～12:00,0.0463,0.0370,0.0420,
大田 (Ota),2015-10-16,10:01～11:00,0.0456,0.0382,0.0409,
大田 (Ota),2015-10-16,09:01～10:00,0.0445,0.0395,0.0423,
大田 (Ota),2015-10-16,08:01～09:00,0.0457,0.0389,0.0418,
大田 (Ota),2015-10-16,07:01～08:00,0.0481,0.0392,0.0434,
大田 (Ota),2015-10-16,06:01～07:00,0.0480,0.0419,0.0449,
大田 (Ota),2015-10-16,05:01～06:00,0.0475,0.0371,0.0442,
大田 (Ota),2015-10-16,04:01～05:00,0.0453,0.0375,0.0416,
大田 (Ota),2015-10-16,03:01～04:00,0.0485,0.0386,0.0430,
大田 (Ota),2015-10-16,02:01～03:00,0.0457,0.0402,0.0428,
大田 (Ota),2015-10-16,01:01～02:00,0.0458,0.0372,0.0408,
大田 (Ota),2015-10-16,00:01～01:00,0.0435,0.0377,0.0404,
大田 (Ota),2015-10-15,23:01～24:00,0.0440,0.0364,0.0395,
大田 (Ota),2015-10-15,22:01～23:00,0.0436,0.0369,0.0395,
大田 (Ota),2015-10-15,21:01～22:00,0.0424,0.0364,0.0392,
大田 (Ota),2015-10-15,20:01～21:00,0.0422,0.0369,0.0390,
大田 (Ota),2015-10-15,19:01～20:00,0.0419,0.0371,0.0395,
大田 (Ota),2015-10-15,18:01～19:00,0.0415,0.0365,0.0390,
大田 (Ota),2015-10-15,17:01～18:00,0.0428,0.0359,0.0394,
大田 (Ota),2015-10-15,16:01～17:00,0.0447,0.0362,0.0396,
大田 (Ota),2015-10-15,15:01～16:00,0.0425,0.0369,0.0394,
大田 (Ota),2015-10-15,14:01～15:00,0.0432,0.0363,0.0394,
大田 (Ota),2015-10-15,13:01～14:00,0.0425,0.0362,0.0396,
大田 (Ota),2015-10-15,12:01～13:00,0.0428,0.0364,0.0397,
大田 (Ota),2015-10-15,11:01～12:00,0.0442,0.0368,0.0401,
大田 (Ota),2015-10-15,10:01～11:00,0.0434,0.0369,0.0404,
大田 (Ota),2015-10-15,09:01～10:00,0.0449,0.0363,0.0400,
大田 (Ota),2015-10-15,08:01～09:00,0.0442,0.0366,0.0401,
大田 (Ota),2015-10-15,07:01～08:00,0.0444,0.0368,0.0404,
大田 (Ota),2015-10-15,06:01～07:00,0.0430,0.0370,0.0400,
大田 (Ota),2015-10-15,05:01～06:00,0.0424,0.0363,0.0394,
大田 (Ota),2015-10-15,04:01～05:00,0.0424,0.0367,0.0398,
大田 (Ota),2015-10-15,03:01～04:00,0.0428,0.0370,0.0397,
大田 (Ota),2015-10-15,02:01～03:00,0.0418,0.0368,0.0396,
大田 (Ota),2015-10-15,01:01～02:00,0.0435,0.0366,0.0395,
大田 (Ota),2015-10-15,00:01～01:00,0.0426,0.0372,0.0399,
大田 (Ota),2015-10-14,23:01～24:00,0.0431,0.0366,0.0395,
大田 (Ota),2015-10-14,22:01～23:00,0.0431,0.0364,0.0393,
大田 (Ota),2015-10-14,21:01～22:00,0.0431,0.0359,0.0394,
大田 (Ota),2015-10-14,20:01～21:00,0.0430,0.0368,0.0397,
大田 (Ota),2015-10-14,19:01～20:00,0.0420,0.0365,0.0392,
大田 (Ota),2015-10-14,18:01～19:00,0.0426,0.0369,0.0396,
大田 (Ota),2015-10-14,17:01～18:00,0.0429,0.0368,0.0393,
大田 (Ota),2015-10-14,16:01～17:00,0.0426,0.0367,0.0396,
大田 (Ota),2015-10-14,15:01～16:00,0.0424,0.0362,0.0394,
大田 (Ota),2015-10-14,14:01～15:00,0.0428,0.0367,0.0393,
大田 (Ota),2015-10-14,13:01～14:00,0.0434,0.0370,0.0401,
大田 (Ota),2015-10-14,12:01～13:00,0.0436,0.0363,0.0393,
大田 (Ota),2015-10-14,11:01～12:00,0.0425,0.0368,0.0396,
大田 (Ota),2015-10-14,10:01～11:00,0.0422,0.0364,0.0398,
大田 (Ota),2015-10-14,09:01～10:00,0.0434,0.0370,0.0398,
大田 (Ota),2015-10-14,08:01～09:00,0.0420,0.0368,0.0393,
大田 (Ota),2015-10-14,07:01～08:00,0.0424,0.0368,0.0393,
大田 (Ota),2015-10-14,06:01～07:00,0.0420,0.0365,0.0393,
大田 (Ota),2015-10-14,05:01～06:00,0.0423,0.0363,0.0392,
大田 (Ota),2015-10-14,04:01～05:00,0.0428,0.0363,0.0396,
大田 (Ota),2015-10-14,03:01～04:00,0.0432,0.0368,0.0394,
大田 (Ota),2015-10-14,02:01～03:00,0.0427,0.0366,0.0395,
大田 (Ota),2015-10-14,01:01～02:00,0.0425,0.0362,0.0393,
大田 (Ota),2015-10-14,00:01～01:00,0.0439,0.0365,0.0394,
大田 (Ota),2015-10-13,23:01～24:00,0.0423,0.0369,0.0395,
大田 (Ota),2015-10-13,22:01～23:00,0.0431,0.0372,0.0396,
大田 (Ota),2015-10-13,21:01～22:00,0.0437,0.0366,0.0398,
大田 (Ota),2015-10-13,20:01～21:00,0.0418,0.0370,0.0395,
大田 (Ota),2015-10-13,19:01～20:00,0.0433,0.0360,0.0395,
大田 (Ota),2015-10-13,18:01～19:00,0.0433,0.0358,0.0393,
大田 (Ota),2015-10-13,17:01～18:00,0.0430,0.0368,0.0395,
大田 (Ota),2015-10-13,16:01～17:00,0.0433,0.0364,0.0395,
大田 (Ota),2015-10-13,15:01～16:00,0.0428,0.0367,0.0397,
大田 (Ota),2015-10-13,14:01～15:00,0.0425,0.0371,0.0396,
大田 (Ota),2015-10-13,13:01～14:00,0.0432,0.0370,0.0399,
大田 (Ota),2015-10-13,12:01～13:00,0.0436,0.0372,0.0400,
大田 (Ota),2015-10-13,11:01～12:00,0.0424,0.0367,0.0398,
大田 (Ota),2015-10-13,10:01～11:00,0.0432,0.0367,0.0396,
大田 (Ota),2015-10-13,09:01～10:00,0.0453,0.0365,0.0403,
大田 (Ota),2015-10-13,08:01～09:00,0.0443,0.0368,0.0404,
大田 (Ota),2015-10-13,07:01～08:00,0.0424,0.0365,0.0402,
大田 (Ota),2015-10-13,06:01～07:00,0.0448,0.0357,0.0401,
大田 (Ota),2015-10-13,05:01～06:00,0.0432,0.0359,0.0396,
大田 (Ota),2015-10-13,04:01～05:00,0.0435,0.0362,0.0395,
大田 (Ota),2015-10-13,03:01～04:00,0.0430,0.0370,0.0398,
大田 (Ota),2015-10-13,02:01～03:00,0.0434,0.0364,0.0391,
大田 (Ota),2015-10-13,01:01～02:00,0.0431,0.0366,0.0400,
大田 (Ota),2015-10-13,00:01～01:00,0.0438,0.0362,0.0398,
大田 (Ota),2015-10-12,23:01～24:00,0.0438,0.0369,0.0401,
大田 (Ota),2015-10-12,22:01～23:00,0.0428,0.0357,0.0394,
大田 (Ota),2015-10-12,21:01～22:00,0.0423,0.0364,0.0393,
大田 (Ota),2015-10-12,20:01～21:00,0.0431,0.0361,0.0395,
大田 (Ota),2015-10-12,19:01～20:00,0.0420,0.0361,0.0391,
大田 (Ota),2015-10-12,18:01～19:00,0.0423,0.0365,0.0395,
大田 (Ota),2015-10-12,17:01～18:00,0.0420,0.0363,0.0391,
大田 (Ota),2015-10-12,16:01～17:00,0.0425,0.0363,0.0390,
大田 (Ota),2015-10-12,15:01～16:00,0.0420,0.0357,0.0391,
大田 (Ota),2015-10-12,14:01～15:00,0.0434,0.0363,0.0390,
大田 (Ota),2015-10-12,13:01～14:00,0.0424,0.0368,0.0394,
大田 (Ota),2015-10-12,12:01～13:00,0.0425,0.0364,0.0394,
大田 (Ota),2015-10-12,11:01～12:00,0.0425,0.0366,0.0394,
大田 (Ota),2015-10-12,10:01～11:00,0.0416,0.0366,0.0392,
大田 (Ota),2015-10-12,09:01～10:00,0.0433,0.0369,0.0400,
大田 (Ota),2015-10-12,08:01～09:00,0.0432,0.0369,0.0401,
大田 (Ota),2015-10-12,07:01～08:00,0.0424,0.0366,0.0397,
大田 (Ota),2015-10-12,06:01～07:00,0.0428,0.0371,0.0397,
大田 (Ota),2015-10-12,05:01～06:00,0.0430,0.0369,0.0399,
大田 (Ota),2015-10-12,04:01～05:00,0.0430,0.0364,0.0392,
大田 (Ota),2015-10-12,03:01～04:00,0.0429,0.0368,0.0397,
大田 (Ota),2015-10-12,02:01～03:00,0.0438,0.0365,0.0395,
大田 (Ota),2015-10-12,01:01～02:00,0.0422,0.0363,0.0389,
大田 (Ota),2015-10-12,00:01～01:00,0.0420,0.0363,0.0392,
